Time,TemperatureF,DewpointF,PressureIn,WindDirection,WindDirectionDegrees,WindSpeedMPH,WindSpeedGustMPH,Humidity,HourlyPrecipIn,Conditions,Clouds,dailyrainin,SoftwareType,DateUTC
2013-04-19 00:01:00,68.7,57.3,29.94,South,179,0.0,0.0,67,0.00,,---,0.00,VWS V14.01,2013-04-19 04:01:00,
2013-04-19 00:06:00,68.5,57.6,29.94,South,176,0.0,0.0,68,0.00,,---,0.00,VWS V14.01,2013-04-19 04:06:00,
2013-04-19 00:11:00,68.4,57.4,29.94,SE,142,0.0,0.0,68,0.00,,---,0.00,VWS V14.01,2013-04-19 04:11:00,
2013-04-19 00:16:00,68.4,57.8,29.94,SE,130,0.0,0.0,69,0.00,,---,0.00,VWS V14.01,2013-04-19 04:16:00,
2013-04-19 00:21:00,68.2,57.6,29.94,SSE,152,0.0,0.0,69,0.00,,---,0.00,VWS V14.01,2013-04-19 04:21:00,
2013-04-19 00:26:00,68.2,57.6,29.94,SE,125,0.0,0.0,69,0.00,,---,0.00,VWS V14.01,2013-04-19 04:26:00,
2013-04-19 00:31:00,68.0,57.9,29.91,SSE,163,0.0,0.0,70,0.00,,---,0.00,VWS V14.01,2013-04-19 04:31:00,
2013-04-19 00:36:00,67.8,58.1,29.91,SSW,193,0.0,0.0,71,0.00,,---,0.00,VWS V14.01,2013-04-19 04:36:00,
2013-04-19 00:41:00,67.6,57.9,29.91,SE,141,0.0,0.0,71,0.00,,---,0.00,VWS V14.01,2013-04-19 04:41:00,
2013-04-19 00:46:00,67.6,58.3,29.91,South,178,0.0,0.0,72,0.00,,---,0.00,VWS V14.01,2013-04-19 04:46:00,
2013-04-19 00:51:00,67.5,58.1,29.91,SE,145,0.0,0.0,72,0.00,,---,0.00,VWS V14.01,2013-04-19 04:51:00,
2013-04-19 00:56:00,67.5,58.5,29.91,SE,140,0.0,0.0,73,0.00,,---,0.00,VWS V14.01,2013-04-19 04:56:00,
2013-04-19 01:01:00,67.5,58.9,29.91,ESE,119,0.0,0.0,74,0.00,,---,0.00,VWS V14.01,2013-04-19 05:01:00,
2013-04-19 01:06:00,67.5,58.9,29.91,South,191,0.0,0.0,74,0.00,,---,0.00,VWS V14.01,2013-04-19 05:06:00,
2013-04-19 01:11:00,67.5,59.3,29.91,SSE,157,0.0,0.0,75,0.00,,---,0.00,VWS V14.01,2013-04-19 05:11:00,
2013-04-19 01:16:00,67.3,59.1,29.91,South,179,0.0,0.0,75,0.00,,---,0.00,VWS V14.01,2013-04-19 05:16:00,
2013-04-19 01:21:00,67.3,59.5,29.91,SSE,165,0.0,0.0,76,0.00,,---,0.00,VWS V14.01,2013-04-19 05:21:00,
2013-04-19 01:26:00,67.3,59.5,29.91,SSE,165,0.0,0.0,76,0.00,,---,0.00,VWS V14.01,2013-04-19 05:26:00,
2013-04-19 01:31:00,67.3,59.8,29.91,SSE,161,0.0,0.0,77,0.00,,---,0.00,VWS V14.01,2013-04-19 05:31:00,
2013-04-19 01:36:00,67.1,59.7,29.91,South,178,0.0,0.0,77,0.00,,---,0.00,VWS V14.01,2013-04-19 05:36:00,
2013-04-19 01:41:00,67.1,60.0,29.91,SW,215,0.0,0.0,78,0.00,,---,0.00,VWS V14.01,2013-04-19 05:41:00,
2013-04-19 01:46:00,66.9,59.8,29.88,SE,133,0.0,0.0,78,0.00,,---,0.00,VWS V14.01,2013-04-19 05:46:00,
2013-04-19 01:51:00,66.9,60.2,29.88,South,179,0.0,0.0,79,0.00,,---,0.00,VWS V14.01,2013-04-19 05:51:00,
2013-04-19 01:56:00,66.9,60.2,29.88,SW,226,0.0,0.0,79,0.00,,---,0.00,VWS V14.01,2013-04-19 05:56:00,
2013-04-19 02:01:00,66.9,60.2,29.88,SSE,147,0.0,0.0,79,0.00,,---,0.00,VWS V14.01,2013-04-19 06:01:00,
2013-04-19 02:06:00,66.7,60.0,29.88,SE,144,0.0,0.0,79,0.00,,---,0.00,VWS V14.01,2013-04-19 06:06:00,
2013-04-19 02:11:00,66.7,60.0,29.88,SE,124,0.0,0.0,79,0.00,,---,0.00,VWS V14.01,2013-04-19 06:11:00,
2013-04-19 02:16:00,66.7,60.0,29.88,SW,229,0.0,0.0,79,0.00,,---,0.00,VWS V14.01,2013-04-19 06:16:00,
2013-04-19 02:21:00,66.7,60.0,29.88,SE,139,0.0,0.0,79,0.00,,---,0.00,VWS V14.01,2013-04-19 06:21:00,
2013-04-19 02:26:00,66.7,60.4,29.88,ESE,115,0.0,0.0,80,0.00,,---,0.00,VWS V14.01,2013-04-19 06:26:00,
2013-04-19 02:31:00,66.7,60.4,29.88,South,184,0.0,0.0,80,0.00,,---,0.00,VWS V14.01,2013-04-19 06:31:00,
2013-04-19 02:36:00,66.6,60.2,29.88,SE,145,0.0,0.0,80,0.00,,---,0.00,VWS V14.01,2013-04-19 06:36:00,
2013-04-19 02:41:00,66.6,60.2,29.88,SSE,166,0.0,0.0,80,0.00,,---,0.00,VWS V14.01,2013-04-19 06:41:00,
2013-04-19 02:46:00,66.6,60.2,29.88,SSW,209,0.0,0.0,80,0.00,,---,0.00,VWS V14.01,2013-04-19 06:46:00,
2013-04-19 02:51:00,66.6,60.2,29.88,South,175,0.0,0.0,80,0.00,,---,0.00,VWS V14.01,2013-04-19 06:51:00,
2013-04-19 02:56:00,66.6,60.6,29.88,SSW,202,0.0,0.0,81,0.00,,---,0.00,VWS V14.01,2013-04-19 06:56:00,
2013-04-19 03:01:00,66.6,60.6,29.88,SSE,165,0.0,0.0,81,0.00,,---,0.00,VWS V14.01,2013-04-19 07:01:00,
2013-04-19 03:06:00,66.6,60.6,29.88,SSW,193,0.0,0.0,81,0.00,,---,0.00,VWS V14.01,2013-04-19 07:06:00,
2013-04-19 03:11:00,66.4,60.4,29.88,South,189,0.0,0.0,81,0.00,,---,0.00,VWS V14.01,2013-04-19 07:11:00,
2013-04-19 03:16:00,66.6,60.6,29.88,South,190,0.0,0.0,81,0.00,,---,0.00,VWS V14.01,2013-04-19 07:16:00,
2013-04-19 03:21:00,66.6,60.6,29.88,SW,216,0.0,0.0,81,0.00,,---,0.00,VWS V14.01,2013-04-19 07:21:00,
2013-04-19 03:26:00,66.4,60.4,29.88,SSW,208,0.0,0.0,81,0.00,,---,0.00,VWS V14.01,2013-04-19 07:26:00,
2013-04-19 03:31:00,66.6,60.6,29.85,South,190,0.0,0.0,81,0.00,,---,0.00,VWS V14.01,2013-04-19 07:31:00,
2013-04-19 03:36:00,66.6,60.6,29.85,South,178,0.0,0.0,81,0.00,,---,0.00,VWS V14.01,2013-04-19 07:36:00,
2013-04-19 03:41:00,66.6,60.6,29.85,South,172,0.0,0.0,81,0.00,,---,0.00,VWS V14.01,2013-04-19 07:41:00,
2013-04-19 03:46:00,66.6,60.6,29.85,ENE,61,0.0,0.0,81,0.00,,---,0.00,VWS V14.01,2013-04-19 07:46:00,
2013-04-19 03:51:00,66.6,60.6,29.85,SSE,151,0.0,0.0,81,0.00,,---,0.00,VWS V14.01,2013-04-19 07:51:00,
2013-04-19 03:56:00,66.6,60.6,29.85,South,172,0.0,0.0,81,0.00,,---,0.00,VWS V14.01,2013-04-19 07:56:00,
2013-04-19 04:01:00,66.6,60.6,29.85,SE,143,0.0,0.0,81,0.00,,---,0.00,VWS V14.01,2013-04-19 08:01:00,
2013-04-19 04:06:00,66.6,60.6,29.85,SSE,151,0.0,0.0,81,0.00,,---,0.00,VWS V14.01,2013-04-19 08:06:00,
2013-04-19 04:11:00,66.4,60.4,29.85,South,170,0.0,0.0,81,0.00,,---,0.00,VWS V14.01,2013-04-19 08:11:00,
2013-04-19 04:16:00,66.4,60.4,29.85,South,172,0.0,0.0,81,0.00,,---,0.00,VWS V14.01,2013-04-19 08:16:00,
2013-04-19 04:21:00,66.4,60.4,29.85,SSE,152,0.0,0.0,81,0.00,,---,0.00,VWS V14.01,2013-04-19 08:21:00,
2013-04-19 04:26:00,66.4,60.7,29.85,South,175,0.0,0.0,82,0.00,,---,0.00,VWS V14.01,2013-04-19 08:26:00,
2013-04-19 04:31:00,66.4,60.7,29.85,SSW,202,0.0,0.0,82,0.00,,---,0.00,VWS V14.01,2013-04-19 08:31:00,
2013-04-19 04:36:00,66.4,60.7,29.85,SSE,154,0.0,0.0,82,0.00,,---,0.00,VWS V14.01,2013-04-19 08:36:00,
2013-04-19 04:41:00,66.4,60.7,29.85,South,180,0.0,0.0,82,0.00,,---,0.00,VWS V14.01,2013-04-19 08:41:00,
2013-04-19 04:46:00,66.4,60.7,29.82,SSE,150,0.0,0.0,82,0.00,,---,0.00,VWS V14.01,2013-04-19 08:46:00,
2013-04-19 04:51:00,66.4,60.7,29.82,South,182,0.0,0.0,82,0.00,,---,0.00,VWS V14.01,2013-04-19 08:51:00,
2013-04-19 04:56:00,66.4,60.7,29.82,SW,230,0.0,0.0,82,0.00,,---,0.00,VWS V14.01,2013-04-19 08:56:00,
2013-04-19 05:01:00,66.4,60.7,29.82,South,186,0.0,0.0,82,0.00,,---,0.00,VWS V14.01,2013-04-19 09:01:00,
2013-04-19 05:06:00,66.4,60.7,29.82,SW,218,0.0,0.0,82,0.00,,---,0.00,VWS V14.01,2013-04-19 09:06:00,
2013-04-19 05:11:00,66.4,60.7,29.82,SSW,211,0.0,0.0,82,0.00,,---,0.00,VWS V14.01,2013-04-19 09:11:00,
2013-04-19 05:16:00,66.4,60.7,29.82,South,187,0.0,0.0,82,0.00,,---,0.00,VWS V14.01,2013-04-19 09:16:00,
2013-04-19 05:21:00,66.4,60.7,29.82,SSE,160,0.0,0.0,82,0.00,,---,0.00,VWS V14.01,2013-04-19 09:21:00,
2013-04-19 05:26:00,66.4,60.7,29.82,South,173,0.0,0.0,82,0.00,,---,0.00,VWS V14.01,2013-04-19 09:26:00,
2013-04-19 05:31:00,66.4,60.7,29.82,South,171,0.0,0.0,82,0.00,,---,0.00,VWS V14.01,2013-04-19 09:31:00,
2013-04-19 05:36:00,66.4,60.7,29.82,SW,220,0.0,0.0,82,0.00,,---,0.00,VWS V14.01,2013-04-19 09:36:00,
2013-04-19 05:41:00,66.4,60.7,29.82,SSE,155,0.0,0.0,82,0.00,,---,0.00,VWS V14.01,2013-04-19 09:41:00,
2013-04-19 05:46:00,66.4,61.1,29.82,South,179,0.0,0.0,83,0.00,,---,0.00,VWS V14.01,2013-04-19 09:46:00,
2013-04-19 05:51:00,66.4,61.1,29.79,SW,235,0.0,0.0,83,0.00,,---,0.00,VWS V14.01,2013-04-19 09:51:00,
2013-04-19 05:56:00,66.4,61.1,29.79,SSW,207,0.0,0.0,83,0.00,,---,0.00,VWS V14.01,2013-04-19 09:56:00,
2013-04-19 06:01:00,66.4,61.1,29.82,SSE,151,0.0,0.0,83,0.00,,---,0.00,VWS V14.01,2013-04-19 10:01:00,
2013-04-19 06:06:00,66.4,61.1,29.82,SSE,168,0.0,0.0,83,0.00,,---,0.00,VWS V14.01,2013-04-19 10:06:00,
2013-04-19 06:11:00,66.4,61.1,29.82,South,179,0.0,0.0,83,0.00,,---,0.00,VWS V14.01,2013-04-19 10:11:00,
2013-04-19 06:16:00,66.4,61.1,29.82,South,171,0.0,0.0,83,0.00,,---,0.00,VWS V14.01,2013-04-19 10:16:00,
2013-04-19 06:21:00,66.4,61.4,29.79,SSW,194,0.0,0.0,84,0.00,,---,0.00,VWS V14.01,2013-04-19 10:21:00,
2013-04-19 06:26:00,66.4,61.4,29.79,SE,144,0.0,0.0,84,0.00,,---,0.00,VWS V14.01,2013-04-19 10:26:00,
2013-04-19 06:31:00,66.4,61.4,29.79,South,181,0.0,0.0,84,0.00,,---,0.00,VWS V14.01,2013-04-19 10:31:00,
2013-04-19 06:35:00,66.4,61.4,29.79,South,174,0.0,0.0,84,0.00,,---,0.00,VWS V14.01,2013-04-19 10:35:00,
2013-04-19 06:40:00,66.4,61.4,29.79,South,175,0.0,0.0,84,0.00,,---,0.00,VWS V14.01,2013-04-19 10:40:00,
2013-04-19 06:45:00,66.6,61.6,29.82,South,172,0.0,0.0,84,0.00,,---,0.00,VWS V14.01,2013-04-19 10:45:00,
2013-04-19 06:50:00,66.4,61.4,29.82,SE,133,0.0,0.0,84,0.00,,---,0.00,VWS V14.01,2013-04-19 10:50:00,
2013-04-19 06:55:00,66.6,61.6,29.82,SSE,163,0.0,0.0,84,0.00,,---,0.00,VWS V14.01,2013-04-19 10:55:00,
2013-04-19 07:00:00,66.6,61.6,29.82,SE,135,0.0,0.0,84,0.00,,---,0.00,VWS V14.01,2013-04-19 11:00:00,
2013-04-19 07:05:00,66.6,61.6,29.82,SW,217,0.0,0.0,84,0.00,,---,0.00,VWS V14.01,2013-04-19 11:05:00,
2013-04-19 07:10:00,66.6,61.6,29.82,South,190,0.0,0.0,84,0.00,,---,0.00,VWS V14.01,2013-04-19 11:10:00,
2013-04-19 07:15:00,66.6,61.6,29.82,SE,137,0.0,0.0,84,0.00,,---,0.00,VWS V14.01,2013-04-19 11:15:00,
2013-04-19 07:20:00,66.6,61.6,29.82,SE,145,0.0,0.0,84,0.00,,---,0.00,VWS V14.01,2013-04-19 11:20:00,
2013-04-19 07:25:00,66.7,61.8,29.82,SE,143,0.0,0.0,84,0.00,,---,0.00,VWS V14.01,2013-04-19 11:25:00,
2013-04-19 07:30:00,66.7,61.8,29.82,South,177,0.0,0.0,84,0.00,,---,0.00,VWS V14.01,2013-04-19 11:30:00,
2013-04-19 07:35:00,66.7,61.8,29.82,South,189,0.0,0.0,84,0.00,,---,0.00,VWS V14.01,2013-04-19 11:35:00,
2013-04-19 07:40:00,66.7,61.8,29.82,South,191,0.0,0.0,84,0.00,,---,0.00,VWS V14.01,2013-04-19 11:40:00,
2013-04-19 07:45:00,66.7,61.8,29.82,South,190,0.0,0.0,84,0.00,,---,0.00,VWS V14.01,2013-04-19 11:45:00,
2013-04-19 07:50:00,66.7,61.8,29.82,SSE,168,0.0,0.0,84,0.00,,---,0.00,VWS V14.01,2013-04-19 11:50:00,
2013-04-19 07:55:00,66.7,61.8,29.82,SSW,197,0.0,0.0,84,0.00,,---,0.00,VWS V14.01,2013-04-19 11:55:00,
2013-04-19 08:00:00,66.9,61.9,29.82,SSW,194,0.0,0.0,84,0.00,,---,0.00,VWS V14.01,2013-04-19 12:00:00,
2013-04-19 08:05:00,66.9,61.9,29.79,East,91,0.0,0.0,84,0.00,,---,0.00,VWS V14.01,2013-04-19 12:05:00,
2013-04-19 08:10:00,66.9,62.3,29.79,SSE,159,0.0,0.0,85,0.00,,---,0.00,VWS V14.01,2013-04-19 12:10:00,
2013-04-19 08:15:00,66.9,62.3,29.82,ESE,110,0.0,0.0,85,0.00,,---,0.00,VWS V14.01,2013-04-19 12:15:00,
2013-04-19 08:20:00,67.1,62.1,29.82,SSE,160,0.0,0.0,84,0.00,,---,0.00,VWS V14.01,2013-04-19 12:20:00,
2013-04-19 08:25:00,67.1,62.1,29.82,SE,138,0.0,0.0,84,0.00,,---,0.00,VWS V14.01,2013-04-19 12:25:00,
2013-04-19 08:30:00,67.1,62.1,29.82,SSW,207,0.0,0.0,84,0.00,,---,0.00,VWS V14.01,2013-04-19 12:30:00,
2013-04-19 08:35:00,67.1,62.1,29.82,SW,226,0.0,0.0,84,0.00,,---,0.00,VWS V14.01,2013-04-19 12:35:00,
2013-04-19 08:40:00,67.1,62.1,29.82,SSE,151,0.0,0.0,84,0.00,,---,0.00,VWS V14.01,2013-04-19 12:40:00,
2013-04-19 08:45:00,67.3,62.3,29.82,SE,136,0.0,0.0,84,0.00,,---,0.00,VWS V14.01,2013-04-19 12:45:00,
2013-04-19 08:50:00,67.3,62.3,29.82,ESE,107,0.0,0.0,84,0.00,,---,0.00,VWS V14.01,2013-04-19 12:50:00,
2013-04-19 08:55:00,67.3,62.3,29.82,SSE,148,0.0,0.0,84,0.00,,---,0.00,VWS V14.01,2013-04-19 12:55:00,
2013-04-19 09:00:00,67.3,62.3,29.82,SSW,198,0.0,0.0,84,0.00,,---,0.00,VWS V14.01,2013-04-19 13:00:00,
2013-04-19 09:05:00,67.5,62.5,29.79,South,190,0.0,0.0,84,0.00,,---,0.00,VWS V14.01,2013-04-19 13:05:00,
2013-04-19 09:10:00,67.6,62.3,29.79,South,190,0.0,0.0,83,0.00,,---,0.00,VWS V14.01,2013-04-19 13:10:00,
2013-04-19 09:15:00,67.8,62.5,29.79,South,191,0.0,0.0,83,0.00,,---,0.00,VWS V14.01,2013-04-19 13:15:00,
2013-04-19 09:20:00,68.0,62.3,29.82,SE,142,0.0,0.0,82,0.00,,---,0.00,VWS V14.01,2013-04-19 13:20:00,
2013-04-19 09:25:00,68.2,62.5,29.82,South,185,0.0,0.0,82,0.00,,---,0.00,VWS V14.01,2013-04-19 13:25:00,
2013-04-19 09:30:00,68.4,62.7,29.82,ESE,116,0.0,0.0,82,0.00,,---,0.00,VWS V14.01,2013-04-19 13:30:00,
2013-04-19 09:35:00,68.5,62.8,29.79,South,185,0.0,0.0,82,0.00,,---,0.00,VWS V14.01,2013-04-19 13:35:00,
2013-04-19 09:40:00,68.5,62.5,29.79,WSW,245,0.0,0.0,81,0.00,,---,0.00,VWS V14.01,2013-04-19 13:40:00,
2013-04-19 09:45:00,68.7,62.7,29.79,SW,230,0.0,0.0,81,0.00,,---,0.00,VWS V14.01,2013-04-19 13:45:00,
2013-04-19 09:50:00,68.9,62.8,29.82,SSE,147,0.0,0.0,81,0.00,,---,0.00,VWS V14.01,2013-04-19 13:50:00,
2013-04-19 09:55:00,68.9,62.8,29.82,ESE,103,0.0,0.0,81,0.00,,---,0.00,VWS V14.01,2013-04-19 13:55:00,
2013-04-19 10:00:00,69.1,63.0,29.82,SE,140,0.0,0.0,81,0.00,,---,0.00,VWS V14.01,2013-04-19 14:00:00,
2013-04-19 10:05:00,69.4,63.0,29.79,SSW,196,0.0,0.0,80,0.00,,---,0.00,VWS V14.01,2013-04-19 14:05:00,
2013-04-19 10:10:00,70.2,63.3,29.79,SSE,166,0.0,0.0,79,0.00,,---,0.00,VWS V14.01,2013-04-19 14:10:00,
2013-04-19 10:15:00,70.3,63.2,29.79,SSW,206,0.0,0.0,78,0.00,,---,0.00,VWS V14.01,2013-04-19 14:15:00,
2013-04-19 10:20:00,70.2,63.0,29.79,South,189,0.0,0.0,78,0.00,,---,0.00,VWS V14.01,2013-04-19 14:20:00,
2013-04-19 10:25:00,70.0,62.8,29.79,SE,146,0.0,0.0,78,0.00,,---,0.00,VWS V14.01,2013-04-19 14:25:00,
2013-04-19 10:30:00,70.0,62.8,29.79,SE,139,0.0,0.0,78,0.00,,---,0.00,VWS V14.01,2013-04-19 14:30:00,
2013-04-19 10:35:00,70.0,62.8,29.79,South,170,0.0,0.0,78,0.00,,---,0.00,VWS V14.01,2013-04-19 14:35:00,
2013-04-19 10:40:00,70.2,63.0,29.79,SSE,168,0.0,0.0,78,0.00,,---,0.00,VWS V14.01,2013-04-19 14:40:00,
2013-04-19 10:45:00,70.2,63.0,29.79,SSW,209,0.0,0.0,78,0.00,,---,0.00,VWS V14.01,2013-04-19 14:45:00,
2013-04-19 10:50:00,70.2,63.0,29.79,South,170,0.0,0.0,78,0.00,,---,0.00,VWS V14.01,2013-04-19 14:50:00,
2013-04-19 10:55:00,70.2,63.0,29.79,SSW,208,0.0,0.0,78,0.00,,---,0.00,VWS V14.01,2013-04-19 14:55:00,
2013-04-19 11:00:00,70.2,63.0,29.79,SSE,168,0.0,0.0,78,0.00,,---,0.00,VWS V14.01,2013-04-19 15:00:00,
2013-04-19 11:05:00,70.0,62.8,29.79,ESE,119,0.0,0.0,78,0.00,,---,0.00,VWS V14.01,2013-04-19 15:05:00,
2013-04-19 11:10:00,70.0,62.8,29.79,ESE,115,0.0,0.0,78,0.00,,---,0.00,VWS V14.01,2013-04-19 15:10:00,
2013-04-19 11:15:00,70.2,63.3,29.79,SSE,151,0.0,0.0,79,0.00,,---,0.00,VWS V14.01,2013-04-19 15:15:00,
2013-04-19 11:20:00,70.3,63.5,29.76,SSE,165,0.0,0.0,79,0.00,,---,0.00,VWS V14.01,2013-04-19 15:20:00,
2013-04-19 11:25:00,70.3,63.2,29.76,SE,142,0.0,0.0,78,0.00,,---,0.00,VWS V14.01,2013-04-19 15:25:00,
2013-04-19 11:30:00,70.5,63.3,29.76,SSW,198,0.0,0.0,78,0.00,,---,0.00,VWS V14.01,2013-04-19 15:30:00,
2013-04-19 11:35:00,70.5,63.3,29.76,ESE,108,0.0,0.0,78,0.00,,---,0.00,VWS V14.01,2013-04-19 15:35:00,
2013-04-19 11:40:00,70.5,63.3,29.76,SE,140,0.0,0.0,78,0.00,,---,0.00,VWS V14.01,2013-04-19 15:40:00,
2013-04-19 11:45:00,70.7,63.5,29.76,SE,136,0.0,0.0,78,0.00,,---,0.00,VWS V14.01,2013-04-19 15:45:00,
2013-04-19 11:50:00,70.9,63.7,29.76,ENE,73,0.0,0.0,78,0.00,,---,0.00,VWS V14.01,2013-04-19 15:50:00,
2013-04-19 11:55:00,71.1,63.9,29.76,SSW,197,0.0,0.0,78,0.00,,---,0.00,VWS V14.01,2013-04-19 15:55:00,
2013-04-19 12:00:00,71.2,64.0,29.76,SSE,167,0.0,0.0,78,0.00,,---,0.00,VWS V14.01,2013-04-19 16:00:00,
2013-04-19 12:05:00,71.4,63.8,29.76,SSW,200,0.0,0.0,77,0.00,,---,0.00,VWS V14.01,2013-04-19 16:05:00,
2013-04-19 12:10:00,71.4,63.8,29.76,ESE,116,0.0,0.0,77,0.00,,---,0.00,VWS V14.01,2013-04-19 16:10:00,
2013-04-19 12:15:00,71.4,63.8,29.76,South,181,0.0,0.0,77,0.00,,---,0.00,VWS V14.01,2013-04-19 16:15:00,
2013-04-19 12:20:00,71.6,63.6,29.73,SSE,147,0.0,0.0,76,0.00,,---,0.00,VWS V14.01,2013-04-19 16:20:00,
2013-04-19 12:25:00,72.1,64.2,29.73,SE,143,0.0,0.0,76,0.00,,---,0.00,VWS V14.01,2013-04-19 16:25:00,
2013-04-19 12:30:00,72.7,64.3,29.73,South,183,0.0,0.0,75,0.00,,---,0.00,VWS V14.01,2013-04-19 16:30:00,
2013-04-19 12:35:00,72.9,64.1,29.73,South,174,0.0,0.0,74,0.00,,---,0.00,VWS V14.01,2013-04-19 16:35:00,
2013-04-19 12:40:00,72.9,63.7,29.73,SSW,200,0.0,0.0,73,0.00,,---,0.00,VWS V14.01,2013-04-19 16:40:00,
2013-04-19 12:45:00,72.9,63.7,29.73,ESE,106,0.0,0.0,73,0.00,,---,0.00,VWS V14.01,2013-04-19 16:45:00,
2013-04-19 12:50:00,72.7,63.5,29.73,SE,137,0.0,0.0,73,0.00,,---,0.00,VWS V14.01,2013-04-19 16:50:00,
2013-04-19 12:55:00,72.7,63.5,29.73,SSW,198,0.0,0.0,73,0.00,,---,0.00,VWS V14.01,2013-04-19 16:55:00,
2013-04-19 13:00:00,72.7,63.5,29.73,South,173,0.0,0.0,73,0.00,,---,0.00,VWS V14.01,2013-04-19 17:00:00,
2013-04-19 13:05:00,72.7,63.5,29.73,SE,143,0.0,0.0,73,0.00,,---,0.00,VWS V14.01,2013-04-19 17:05:00,
2013-04-19 13:10:00,72.7,63.5,29.73,ESE,104,0.0,0.0,73,0.00,,---,0.00,VWS V14.01,2013-04-19 17:10:00,
2013-04-19 13:15:00,72.7,63.5,29.73,SSW,212,0.0,0.0,73,0.00,,---,0.00,VWS V14.01,2013-04-19 17:15:00,
2013-04-19 13:20:00,72.7,63.5,29.70,SSE,149,0.0,0.0,73,0.00,,---,0.00,VWS V14.01,2013-04-19 17:20:00,
2013-04-19 13:25:00,72.9,63.7,29.70,SSW,196,0.0,0.0,73,0.00,,---,0.00,VWS V14.01,2013-04-19 17:25:00,
2013-04-19 13:30:00,72.9,63.3,29.70,SSW,197,0.0,0.0,72,0.00,,---,0.00,VWS V14.01,2013-04-19 17:30:00,
2013-04-19 13:35:00,73.0,63.5,29.70,SSE,152,0.0,0.0,72,0.00,,---,0.00,VWS V14.01,2013-04-19 17:35:00,
2013-04-19 13:40:00,73.2,63.7,29.70,SSE,161,0.0,0.0,72,0.00,,---,0.00,VWS V14.01,2013-04-19 17:40:00,
2013-04-19 13:45:00,73.2,63.7,29.70,South,185,0.0,0.0,72,0.00,,---,0.00,VWS V14.01,2013-04-19 17:45:00,
2013-04-19 13:50:00,73.4,63.4,29.67,South,185,0.0,0.0,71,0.00,,---,0.00,VWS V14.01,2013-04-19 17:50:00,
2013-04-19 13:55:00,73.4,63.4,29.67,South,181,0.0,0.0,71,0.00,,---,0.00,VWS V14.01,2013-04-19 17:55:00,
2013-04-19 14:00:00,73.8,63.8,29.67,SE,138,0.0,0.0,71,0.00,,---,0.00,VWS V14.01,2013-04-19 18:00:00,
2013-04-19 14:05:00,73.9,64.0,29.70,South,170,0.0,0.0,71,0.00,,---,0.00,VWS V14.01,2013-04-19 18:05:00,
2013-04-19 14:10:00,74.1,64.1,29.70,SSW,197,0.0,0.0,71,0.00,,---,0.00,VWS V14.01,2013-04-19 18:10:00,
2013-04-19 14:15:00,73.9,64.0,29.70,South,189,0.0,0.0,71,0.00,,---,0.00,VWS V14.01,2013-04-19 18:15:00,
2013-04-19 14:20:00,74.1,64.1,29.67,SSE,148,0.0,0.0,71,0.00,,---,0.00,VWS V14.01,2013-04-19 18:20:00,
2013-04-19 14:25:00,74.3,64.3,29.67,South,182,0.0,0.0,71,0.00,,---,0.00,VWS V14.01,2013-04-19 18:25:00,
2013-04-19 14:30:00,74.5,64.1,29.67,ESE,122,0.0,0.0,70,0.00,,---,0.00,VWS V14.01,2013-04-19 18:30:00,
2013-04-19 14:35:00,74.7,64.2,29.67,South,187,8.1,8.1,70,0.00,,---,0.00,VWS V14.01,2013-04-19 18:35:00,
2013-04-19 14:40:00,74.8,64.4,29.67,ESE,106,3.6,3.6,70,0.00,,---,0.00,VWS V14.01,2013-04-19 18:40:00,
2013-04-19 14:45:00,74.8,64.4,29.67,SE,139,4.0,8.1,70,0.00,,---,0.00,VWS V14.01,2013-04-19 18:45:00,
2013-04-19 14:50:00,74.8,64.4,29.67,South,180,3.6,3.6,70,0.00,,---,0.00,VWS V14.01,2013-04-19 18:50:00,
2013-04-19 14:55:00,75.0,64.6,29.67,SE,143,2.7,3.6,70,0.00,,---,0.00,VWS V14.01,2013-04-19 18:55:00,
2013-04-19 15:00:00,75.2,64.3,29.67,SSW,195,5.4,5.4,69,0.00,,---,0.00,VWS V14.01,2013-04-19 19:00:00,
2013-04-19 15:05:00,75.4,64.5,29.67,SE,142,0.0,4.0,69,0.00,,---,0.00,VWS V14.01,2013-04-19 19:05:00,
2013-04-19 15:10:00,75.4,64.1,29.67,South,182,6.3,6.3,68,0.00,,---,0.00,VWS V14.01,2013-04-19 19:10:00,
2013-04-19 15:15:00,75.6,64.3,29.67,SE,129,2.7,5.4,68,0.00,,---,0.00,VWS V14.01,2013-04-19 19:15:00,
2013-04-19 15:20:00,75.4,64.1,29.67,SSE,155,3.1,5.8,68,0.00,,---,0.00,VWS V14.01,2013-04-19 19:20:00,
2013-04-19 15:25:00,75.4,64.5,29.67,South,181,6.3,6.3,69,0.00,,---,0.00,VWS V14.01,2013-04-19 19:25:00,
2013-04-19 15:30:00,75.4,64.1,29.67,South,179,2.7,4.0,68,0.00,,---,0.00,VWS V14.01,2013-04-19 19:30:00,
2013-04-19 15:35:00,75.2,64.3,29.67,South,176,8.7,8.7,69,0.00,,---,0.00,VWS V14.01,2013-04-19 19:35:00,
2013-04-19 15:40:00,74.7,64.6,29.67,SSW,196,8.3,8.3,71,0.00,,---,0.00,VWS V14.01,2013-04-19 19:40:00,
2013-04-19 15:45:00,74.5,64.1,29.67,SSW,195,4.9,4.9,70,0.00,,---,0.00,VWS V14.01,2013-04-19 19:45:00,
2013-04-19 15:50:00,74.1,63.7,29.67,SSW,194,2.2,4.0,70,0.00,,---,0.00,VWS V14.01,2013-04-19 19:50:00,
2013-04-19 15:55:00,73.9,63.5,29.67,SSW,204,3.6,4.0,70,0.00,,---,0.00,VWS V14.01,2013-04-19 19:55:00,
2013-04-19 16:00:00,72.0,62.5,29.67,SSE,150,4.5,6.3,72,0.00,,---,0.00,VWS V14.01,2013-04-19 20:00:00,
2013-04-19 16:05:00,68.4,60.5,29.70,SW,230,4.0,8.1,76,0.04,,---,0.04,VWS V14.01,2013-04-19 20:05:00,
2013-04-19 16:10:00,66.6,59.8,29.70,SSE,152,0.0,5.8,79,0.04,,---,0.04,VWS V14.01,2013-04-19 20:10:00,
2013-04-19 16:15:00,65.8,60.2,29.70,WSW,245,3.1,3.6,82,0.04,,---,0.04,VWS V14.01,2013-04-19 20:15:00,
2013-04-19 16:20:00,65.5,60.2,29.70,SSE,156,0.0,0.0,83,0.04,,---,0.04,VWS V14.01,2013-04-19 20:20:00,
2013-04-19 16:25:00,65.1,60.8,29.70,SSW,213,0.0,0.0,86,0.04,,---,0.04,VWS V14.01,2013-04-19 20:25:00,
2013-04-19 16:30:00,65.1,61.5,29.70,WSW,248,0.0,0.0,88,0.04,,---,0.04,VWS V14.01,2013-04-19 20:30:00,
2013-04-19 16:35:00,65.1,61.8,29.67,SW,229,0.0,0.0,89,0.04,,---,0.04,VWS V14.01,2013-04-19 20:35:00,
2013-04-19 16:40:00,65.5,62.8,29.67,SW,221,2.2,4.0,91,0.04,,---,0.04,VWS V14.01,2013-04-19 20:40:00,
2013-04-19 16:45:00,65.8,63.5,29.67,SSW,197,0.0,4.9,92,0.04,,---,0.04,VWS V14.01,2013-04-19 20:45:00,
2013-04-19 16:50:00,66.0,63.6,29.67,SSW,194,3.6,4.0,92,0.04,,---,0.04,VWS V14.01,2013-04-19 20:50:00,
2013-04-19 16:55:00,66.6,64.2,29.67,SW,224,0.0,0.0,92,0.04,,---,0.04,VWS V14.01,2013-04-19 20:55:00,
2013-04-19 17:00:00,66.7,64.3,29.67,SW,216,0.0,0.0,92,0.04,,---,0.04,VWS V14.01,2013-04-19 21:00:00,
2013-04-19 17:05:00,66.7,64.3,29.67,South,182,0.0,0.0,92,0.04,,---,0.04,VWS V14.01,2013-04-19 21:05:00,
2013-04-19 17:10:00,66.9,64.5,29.67,South,176,0.0,0.0,92,0.00,,---,0.04,VWS V14.01,2013-04-19 21:10:00,
2013-04-19 17:15:00,66.9,64.8,29.67,SSW,201,0.0,0.0,93,0.00,,---,0.04,VWS V14.01,2013-04-19 21:15:00,
2013-04-19 17:20:00,66.9,64.8,29.70,South,191,0.0,0.0,93,0.08,,---,0.12,VWS V14.01,2013-04-19 21:20:00,
2013-04-19 17:25:00,66.9,64.8,29.70,SE,133,0.0,0.0,93,0.08,,---,0.12,VWS V14.01,2013-04-19 21:25:00,
2013-04-19 17:30:00,66.9,65.1,29.70,ENE,64,0.0,0.0,94,0.08,,---,0.12,VWS V14.01,2013-04-19 21:30:00,
2013-04-19 17:35:00,66.7,65.3,29.70,South,179,0.0,0.0,95,0.12,,---,0.16,VWS V14.01,2013-04-19 21:35:00,
2013-04-19 17:40:00,66.7,65.3,29.70,WSW,241,0.0,0.0,95,0.12,,---,0.16,VWS V14.01,2013-04-19 21:40:00,
2013-04-19 17:45:00,66.9,65.4,29.70,SSW,197,0.0,0.0,95,0.12,,---,0.16,VWS V14.01,2013-04-19 21:45:00,
2013-04-19 17:50:00,66.9,65.8,29.70,South,191,0.0,0.0,96,0.12,,---,0.16,VWS V14.01,2013-04-19 21:50:00,
2013-04-19 17:55:00,66.9,65.8,29.70,South,171,0.0,0.0,96,0.12,,---,0.16,VWS V14.01,2013-04-19 21:55:00,
2013-04-19 18:00:00,66.7,65.6,29.70,WSW,253,0.0,0.0,96,0.12,,---,0.16,VWS V14.01,2013-04-19 22:00:00,
2013-04-19 18:05:00,66.9,65.8,29.67,NW,305,0.0,0.0,96,0.12,,---,0.16,VWS V14.01,2013-04-19 22:05:00,
2013-04-19 18:10:00,66.9,65.8,29.67,WSW,257,0.0,0.0,96,0.12,,---,0.16,VWS V14.01,2013-04-19 22:10:00,
2013-04-19 18:15:00,66.7,65.3,29.67,SSE,162,0.0,0.0,95,0.12,,---,0.16,VWS V14.01,2013-04-19 22:15:00,
2013-04-19 18:20:00,66.7,65.3,29.67,East,81,0.0,0.0,95,0.04,,---,0.16,VWS V14.01,2013-04-19 22:20:00,
2013-04-19 18:25:00,66.6,65.1,29.67,South,183,0.0,0.0,95,0.04,,---,0.16,VWS V14.01,2013-04-19 22:25:00,
2013-04-19 18:30:00,66.6,65.1,29.67,SE,128,0.0,0.0,95,0.04,,---,0.16,VWS V14.01,2013-04-19 22:30:00,
2013-04-19 18:35:00,66.6,65.4,29.67,SSE,162,0.0,0.0,96,0.04,,---,0.16,VWS V14.01,2013-04-19 22:35:00,
2013-04-19 18:40:00,66.6,65.1,29.67,SE,130,0.0,0.0,95,0.00,,---,0.16,VWS V14.01,2013-04-19 22:40:00,
2013-04-19 18:45:00,66.4,64.9,29.67,ESE,107,0.0,0.0,95,0.00,,---,0.16,VWS V14.01,2013-04-19 22:45:00,
2013-04-19 18:50:00,66.4,64.9,29.67,SSE,168,0.0,0.0,95,0.00,,---,0.16,VWS V14.01,2013-04-19 22:50:00,
2013-04-19 18:55:00,66.2,64.7,29.67,South,177,0.0,0.0,95,0.00,,---,0.16,VWS V14.01,2013-04-19 22:55:00,
2013-04-19 19:00:00,66.0,64.2,29.67,SE,126,0.0,0.0,94,0.00,,---,0.16,VWS V14.01,2013-04-19 23:00:00,
2013-04-19 19:05:00,66.0,64.2,29.67,SE,141,0.0,0.0,94,0.00,,---,0.16,VWS V14.01,2013-04-19 23:05:00,
2013-04-19 19:10:00,65.8,64.1,29.67,WSW,251,0.0,0.0,94,0.00,,---,0.16,VWS V14.01,2013-04-19 23:10:00,
2013-04-19 19:15:00,65.7,63.9,29.67,SSW,197,0.0,0.0,94,0.00,,---,0.16,VWS V14.01,2013-04-19 23:15:00,
2013-04-19 19:20:00,65.5,63.7,29.67,SSE,147,0.0,0.0,94,0.00,,---,0.16,VWS V14.01,2013-04-19 23:20:00,
2013-04-19 19:25:00,65.3,63.5,29.67,SSW,203,0.0,0.0,94,0.00,,---,0.16,VWS V14.01,2013-04-19 23:25:00,
2013-04-19 19:30:00,65.3,63.5,29.67,SSW,193,0.0,0.0,94,0.04,,---,0.20,VWS V14.01,2013-04-19 23:30:00,
2013-04-19 19:35:00,65.1,63.3,29.67,SSW,196,0.0,0.0,94,0.04,,---,0.20,VWS V14.01,2013-04-19 23:35:00,
2013-04-19 19:40:00,65.1,63.3,29.67,South,179,0.0,0.0,94,0.04,,---,0.20,VWS V14.01,2013-04-19 23:40:00,
2013-04-19 19:45:00,65.1,63.3,29.67,SSE,164,0.0,0.0,94,0.04,,---,0.20,VWS V14.01,2013-04-19 23:45:00,
2013-04-19 19:50:00,64.9,62.9,29.67,WSW,243,0.0,0.0,93,0.04,,---,0.20,VWS V14.01,2013-04-19 23:50:00,
2013-04-19 19:55:00,64.8,62.7,29.67,SSW,211,0.0,0.0,93,0.04,,---,0.20,VWS V14.01,2013-04-19 23:55:00,
2013-04-19 20:00:00,64.6,62.5,29.67,SW,224,0.0,0.0,93,0.04,,---,0.00,VWS V14.01,2013-04-20 00:00:00,
2013-04-19 20:05:00,64.6,62.5,29.70,SSW,209,0.0,0.0,93,0.04,,---,0.20,VWS V14.01,2013-04-20 00:05:00,
2013-04-19 20:10:00,64.4,62.3,29.70,ENE,72,0.0,0.0,93,0.04,,---,0.20,VWS V14.01,2013-04-20 00:10:00,
2013-04-19 20:15:00,64.4,62.6,29.70,East,87,0.0,0.0,94,0.04,,---,0.20,VWS V14.01,2013-04-20 00:15:00,
2013-04-19 20:20:00,64.2,62.5,29.70,South,190,0.0,0.0,94,0.04,,---,0.20,VWS V14.01,2013-04-20 00:20:00,
2013-04-19 20:25:00,64.2,62.5,29.70,SW,224,0.0,0.0,94,0.04,,---,0.20,VWS V14.01,2013-04-20 00:25:00,
2013-04-19 20:30:00,64.0,62.3,29.70,ESE,116,0.0,0.0,94,0.00,,---,0.20,VWS V14.01,2013-04-20 00:30:00,
2013-04-19 20:35:00,64.0,62.3,29.70,South,184,0.0,0.0,94,0.00,,---,0.20,VWS V14.01,2013-04-20 00:35:00,
2013-04-19 20:40:00,63.9,62.1,29.70,South,184,0.0,0.0,94,0.00,,---,0.20,VWS V14.01,2013-04-20 00:40:00,
2013-04-19 20:45:00,63.7,62.2,29.70,South,184,0.0,0.0,95,0.00,,---,0.20,VWS V14.01,2013-04-20 00:45:00,
2013-04-19 20:50:00,63.7,62.2,29.70,SSW,208,0.0,0.0,95,0.00,,---,0.20,VWS V14.01,2013-04-20 00:50:00,
2013-04-19 20:55:00,63.7,62.2,29.70,WNW,290,0.0,0.0,95,0.00,,---,0.20,VWS V14.01,2013-04-20 00:55:00,
2013-04-19 21:00:00,63.5,62.3,29.70,WNW,288,0.0,0.0,96,0.00,,---,0.20,VWS V14.01,2013-04-20 01:00:00,
2013-04-19 21:05:00,63.5,62.3,29.73,WNW,288,0.0,0.0,96,0.00,,---,0.20,VWS V14.01,2013-04-20 01:05:00,
2013-04-19 21:10:00,63.5,62.3,29.73,WNW,288,0.0,0.0,96,0.00,,---,0.20,VWS V14.01,2013-04-20 01:10:00,
2013-04-19 21:15:00,63.3,62.5,29.73,WNW,288,0.0,0.0,97,0.00,,---,0.20,VWS V14.01,2013-04-20 01:15:00,
2013-04-19 21:20:00,63.3,62.5,29.73,South,185,0.0,0.0,97,0.00,,---,0.20,VWS V14.01,2013-04-20 01:20:00,
2013-04-19 21:25:00,63.1,62.3,29.73,SSE,149,0.0,0.0,97,0.00,,---,0.20,VWS V14.01,2013-04-20 01:25:00,
2013-04-19 21:30:00,63.1,62.3,29.73,North,353,0.0,0.0,97,0.00,,---,0.20,VWS V14.01,2013-04-20 01:30:00,
2013-04-19 21:35:00,63.0,61.8,29.73,NNE,28,0.0,0.0,96,0.00,,---,0.20,VWS V14.01,2013-04-20 01:35:00,
2013-04-19 21:40:00,63.0,61.8,29.73,South,187,0.0,0.0,96,0.00,,---,0.20,VWS V14.01,2013-04-20 01:40:00,
2013-04-19 21:45:00,63.0,61.2,29.73,SW,236,0.0,0.0,94,0.00,,---,0.20,VWS V14.01,2013-04-20 01:45:00,
2013-04-19 21:50:00,62.8,60.4,29.76,SW,218,0.0,0.0,92,0.00,,---,0.20,VWS V14.01,2013-04-20 01:50:00,
2013-04-19 21:55:00,62.4,59.5,29.76,West,279,0.0,0.0,90,0.00,,---,0.20,VWS V14.01,2013-04-20 01:55:00,
2013-04-19 22:00:00,62.4,58.8,29.76,WNW,286,0.0,0.0,88,0.00,,---,0.20,VWS V14.01,2013-04-20 02:00:00,
2013-04-19 22:05:00,61.7,57.2,29.76,North,353,0.0,0.0,85,0.00,,---,0.20,VWS V14.01,2013-04-20 02:05:00,
2013-04-19 22:10:00,61.2,56.0,29.76,West,263,0.0,0.0,83,0.00,,---,0.20,VWS V14.01,2013-04-20 02:10:00,
2013-04-19 22:15:00,60.4,55.6,29.76,NNW,332,0.0,0.0,84,0.00,,---,0.20,VWS V14.01,2013-04-20 02:15:00,
2013-04-19 22:20:00,60.1,54.9,29.76,NNW,341,0.0,0.0,83,0.00,,---,0.20,VWS V14.01,2013-04-20 02:20:00,
2013-04-19 22:25:00,59.7,54.6,29.76,NW,324,0.0,0.0,83,0.00,,---,0.20,VWS V14.01,2013-04-20 02:25:00,
2013-04-19 22:30:00,59.4,53.9,29.76,NE,48,0.0,0.0,82,0.00,,---,0.20,VWS V14.01,2013-04-20 02:30:00,
2013-04-19 22:35:00,58.8,53.0,29.76,West,274,0.0,0.0,81,0.00,,---,0.20,VWS V14.01,2013-04-20 02:35:00,
2013-04-19 22:40:00,58.6,52.8,29.76,WNW,287,0.0,0.0,81,0.00,,---,0.20,VWS V14.01,2013-04-20 02:40:00,
2013-04-19 22:45:00,58.5,51.6,29.76,WNW,303,0.0,0.0,78,0.00,,---,0.20,VWS V14.01,2013-04-20 02:45:00,
2013-04-19 22:50:00,58.3,51.1,29.76,SSW,195,0.0,0.0,77,0.00,,---,0.20,VWS V14.01,2013-04-20 02:50:00,
2013-04-19 22:55:00,57.9,50.0,29.76,South,185,0.0,0.0,75,0.00,,---,0.20,VWS V14.01,2013-04-20 02:55:00,
2013-04-19 23:00:00,57.6,49.7,29.76,NW,320,0.0,0.0,75,0.00,,---,0.20,VWS V14.01,2013-04-20 03:00:00,
2013-04-19 23:05:00,57.4,48.4,29.76,NW,325,0.0,0.0,72,0.00,,---,0.20,VWS V14.01,2013-04-20 03:05:00,
2013-04-19 23:10:00,57.2,47.9,29.76,SW,217,0.0,0.0,71,0.00,,---,0.20,VWS V14.01,2013-04-20 03:10:00,
2013-04-19 23:15:00,57.0,46.6,29.76,SE,140,0.0,0.0,68,0.00,,---,0.20,VWS V14.01,2013-04-20 03:15:00,
2013-04-19 23:20:00,56.8,46.0,29.79,North,0,0.0,0.0,67,0.00,,---,0.20,VWS V14.01,2013-04-20 03:20:00,
2013-04-19 23:25:00,56.7,45.4,29.79,SSE,151,0.0,0.0,66,0.00,,---,0.20,VWS V14.01,2013-04-20 03:25:00,
2013-04-19 23:30:00,56.7,45.0,29.79,NW,314,0.0,0.0,65,0.00,,---,0.20,VWS V14.01,2013-04-20 03:30:00,
2013-04-19 23:35:00,56.5,45.3,29.79,North,350,0.0,0.0,66,0.00,,---,0.20,VWS V14.01,2013-04-20 03:35:00,
2013-04-19 23:40:00,56.3,45.1,29.79,West,277,0.0,0.0,66,0.00,,---,0.20,VWS V14.01,2013-04-20 03:40:00,
2013-04-19 23:45:00,56.5,44.5,29.79,WNW,288,0.0,0.0,64,0.00,,---,0.20,VWS V14.01,2013-04-20 03:45:00,
2013-04-19 23:50:00,56.3,44.7,29.79,SE,128,0.0,0.0,65,0.00,,---,0.20,VWS V14.01,2013-04-20 03:50:00,
2013-04-19 23:55:00,56.1,44.5,29.79,WSW,254,0.0,0.0,65,0.00,,---,0.20,VWS V14.01,2013-04-20 03:55:00,